Waarnemingen

Advertentie
Mijn weer
Stockholm/Bromma, Zweden (2464): temperatuur & dauwpunt: 18.10.2018 00:00:00 - 24.10.2018 00:00:00 (CEST)Stockholm/Bromma, Zweden (2464): windsnelheid: 18.10.2018 00:00:00 - 24.10.2018 00:00:00 (CEST)Stockholm/Bromma, Zweden (2464): windrichting: 18.10.2018 00:00:00 - 24.10.2018 00:00:00 (CEST)Stockholm/Bromma, Zweden (2464): luchtdruk: 18.10.2018 00:00:00 - 24.10.2018 00:00:00 (CEST)Stockholm/Bromma, Zweden (2464): zicht: 18.10.2018 00:00:00 - 24.10.2018 00:00:00 (CEST)
Datum & Tijd tt [°C] td [°C] ff [km/u] ff [kn] dd ppp [hPa] vv [km]
24.10.2018 00:00:00 4,3 1,7 29 16 NW 992,7 10
23.10.2018 23:00:00 4,5 1,7 28 15 NW 992,2 10
23.10.2018 22:00:00 4,2 1,7 22 12 NW 991,6 10
23.10.2018 21:00:00 3,8 1,7 22 12 NW 991,0 10
23.10.2018 20:00:00 4,1 1,6 21 11 NW 990,6 10
23.10.2018 19:00:00 4,7 2,1 24 13 NW 990,3 10
23.10.2018 18:00:00 5,1 2,6 22 12 NW 989,9 10
23.10.2018 17:00:00 5,3 3,1 24 13 NW 989,4 10
23.10.2018 16:00:00 5,8 3,6 26 14 NW 988,7 10
23.10.2018 15:00:00 5,9 4,2 24 13 NW 988,3 10
23.10.2018 14:00:00 6,1 5,1 18 10 NW 987,9 10
23.10.2018 13:00:00 6,0 4,8 18 10 NW 987,8 10
23.10.2018 12:00:00 7,1 5,7 21 11 NW 987,3 10
23.10.2018 11:00:00 7,4 6,3 16 9 NW 987,0 10
23.10.2018 10:00:00 7,3 6,7 9 5 WNW 986,9 10
23.10.2018 09:00:00 6,7 6,3 8 4 W 987,4 8
23.10.2018 08:00:00 6,6 5,9 11 6 Z 988,1 10
23.10.2018 07:00:00 6,3 5,6 16 9 Z 989,4 10
23.10.2018 06:00:00 6,2 5,5 16 9 Z 991,8 10
23.10.2018 05:00:00 6,2 5,3 18 10 Z 994,5 8
23.10.2018 04:00:00 6,2 4,8 16 9 Z 997,1 10
23.10.2018 03:00:00 6,2 4,4 13 7 Z 1000,1 10
23.10.2018 02:00:00 7,0 3,1 16 9 ZZW 1002,7 10
23.10.2018 01:00:00 7,0 2,7 18 10 ZZW 1005,0 10
23.10.2018 00:00:00 7,0 2,5 15 8 ZW 1006,9 10
22.10.2018 23:00:00 7,2 2,5 18 10 ZW 1008,5 10
22.10.2018 22:00:00 7,5 2,6 16 9 WZW 1009,7 10
22.10.2018 21:00:00 7,8 1,4 18 10 WZW 1010,5 10
22.10.2018 20:00:00 8,3 0,8 16 9 WZW 1011,3 10
22.10.2018 19:00:00 8,5 0,0 16 9 WZW 1011,9 10
22.10.2018 18:00:00 9,1 -0,5 22 12 W 1012,2 10
22.10.2018 17:00:00 9,7 -0,8 24 13 W 1012,2 10
22.10.2018 16:00:00 10,0 -0,8 31 17 W 1011,9 10
22.10.2018 15:00:00 10,4 -0,4 31 17 W 1011,6 10
22.10.2018 14:00:00 10,3 -0,2 28 15 W 1011,5 10
22.10.2018 13:00:00 10,4 1,0 31 17 W 1011,7 10
22.10.2018 12:00:00 10,3 2,4 31 17 W 1011,6 10
22.10.2018 11:00:00 10,4 4,5 24 13 WZW 1011,4 10
22.10.2018 10:00:00 9,9 5,5 21 11 WZW 1011,3 10
22.10.2018 09:00:00 9,5 5,3 21 11 WZW 1011,4 10
22.10.2018 08:00:00 9,0 4,6 18 10 WZW 1011,0 10
22.10.2018 07:00:00 9,5 6,2 16 9 W 1010,5 10
22.10.2018 06:00:00 10,6 7,8 18 10 W 1010,1 10
22.10.2018 05:00:00 11,3 7,0 21 11 WNW 1009,9 10
22.10.2018 04:00:00 12,2 9,8 21 11 W 1009,6 10
22.10.2018 03:00:00 14,2 11,0 29 16 WZW 1008,5 10
22.10.2018 02:00:00 14,6 11,6 22 12 ZW 1008,2 10
22.10.2018 01:00:00 14,3 11,6 24 13 ZW 1008,4 10
22.10.2018 00:00:00 14,1 11,3 21 11 ZZW 1009,0 10
21.10.2018 23:00:00 13,0 10,9 15 8 ZZW 1010,0 10
21.10.2018 22:00:00 12,4 10,5 16 9 Z 1010,9 10
21.10.2018 21:00:00 12,0 10,1 16 9 ZZW 1012,0 10
21.10.2018 20:00:00 11,7 9,8 15 8 ZZW 1012,9 10
21.10.2018 19:00:00 11,2 9,3 15 8 Z 1013,9 10
21.10.2018 18:00:00 10,8 9,1 13 7 ZZW 1014,5 10
21.10.2018 17:00:00 10,3 8,6 13 7 Z 1015,3 10
21.10.2018 16:00:00 10,8 9,1 16 9 ZZW 1016,1 10
21.10.2018 15:00:00 11,1 9,0 21 11 ZW 1016,4 10
21.10.2018 14:00:00 10,7 8,8 18 10 ZZW 1017,1 10
21.10.2018 13:00:00 9,9 8,0 16 9 ZZW 1018,0 10
21.10.2018 12:00:00 8,5 7,0 13 7 ZZW 1018,8 10
21.10.2018 11:00:00 7,6 6,2 16 9 ZW 1019,4 10
21.10.2018 10:00:00 7,4 5,7 15 8 ZZW 1019,8 10
21.10.2018 09:00:00 6,4 4,7 9 5 ZZW 1019,9 10
21.10.2018 08:00:00 5,8 5,1 11 6 ZZW 1020,2 10
21.10.2018 07:00:00 4,4 4,3 8 4 Z 1021,0 10
21.10.2018 06:00:00 3,7 3,6 5 3 - 1021,7 10
21.10.2018 05:00:00 4,0 3,9 9 5 Z 1022,0 1,6
21.10.2018 04:00:00 4,3 4,2 8 4 Z 1022,2 1,1
21.10.2018 03:00:00 4,7 4,6 9 5 ZW 1022,8 0,6
21.10.2018 02:00:00 4,8 4,7 5 3 ZW 1023,1 6
21.10.2018 01:00:00 5,1 4,7 5 3 ZZW 1022,9 9
21.10.2018 00:00:00 6,0 5,7 5 3 ZW 1022,9 10
20.10.2018 23:00:00 6,8 6,4 8 4 ZW 1022,9 9
20.10.2018 22:00:00 7,2 6,8 8 4 WZW 1023,2 10
20.10.2018 21:00:00 6,7 6,1 2 1 WZW 1023,1 10
20.10.2018 20:00:00 5,5 5,1 0 0 N 1022,9 10
20.10.2018 19:00:00 4,8 4,4 0 0 N 1022,7 10
20.10.2018 18:00:00 6,4 5,4 0 0 N 1022,3 10
20.10.2018 17:00:00 8,5 5,8 4 2 W 1021,9 10
20.10.2018 16:00:00 10,6 6,2 4 2 WZW 1021,7 10
20.10.2018 15:00:00 10,1 5,5 0 0 N 1021,8 10
20.10.2018 14:00:00 10,2 6,2 8 4 WZW 1021,6 10
20.10.2018 13:00:00 8,9 7,0 5 3 W 1021,6 10
20.10.2018 12:00:00 9,2 5,6 0 0 N 1021,5 10
20.10.2018 11:00:00 8,7 6,7 0 0 N 1021,3 10
20.10.2018 10:00:00 7,3 6,2 0 0 N 1020,9 10
20.10.2018 09:00:00 6,7 5,6 11 6 ZZW 1020,5 10
20.10.2018 08:00:00 6,2 5,2 5 3 WNW 1020,1 10
20.10.2018 07:00:00 4,5 4,4 0 0 N 1020,3 10
20.10.2018 06:00:00 4,2 4,1 0 0 N 1020,1 10
20.10.2018 05:00:00 3,4 3,3 0 0 N 1019,8 10
20.10.2018 04:00:00 2,6 2,5 0 0 N 1020,2 10
20.10.2018 03:00:00 2,2 2,1 0 0 N 1020,5 10
20.10.2018 02:00:00 1,6 1,5 0 0 N 1021,0 10
20.10.2018 01:00:00 1,0 0,9 0 0 N 1021,3 10
20.10.2018 00:00:00 1,5 1,4 0 0 N 1021,1 10
19.10.2018 23:00:00 1,6 1,3 0 0 N 1021,4 10
19.10.2018 22:00:00 2,3 1,7 0 0 N 1021,6 10
19.10.2018 21:00:00 2,9 2,5 0 0 N 1021,9 10
19.10.2018 20:00:00 3,1 2,1 0 0 N 1021,8 10
19.10.2018 19:00:00 4,7 3,2 0 0 N 1021,7 10
19.10.2018 18:00:00 7,4 3,8 4 2 - 1021,9 10
19.10.2018 17:00:00 9,2 3,2 5 3 W 1022,0 10
19.10.2018 16:00:00 10,4 1,2 5 3 W 1022,1 10
19.10.2018 15:00:00 11,3 3,3 5 3 - 1022,4 10
19.10.2018 14:00:00 10,7 4,8 4 2 - 1022,8 10
19.10.2018 13:00:00 10,7 4,8 4 2 - 1022,8 10
19.10.2018 12:00:00 9,2 5,0 4 2 W 1023,2 10
19.10.2018 11:00:00 6,9 6,3 4 2 ZW 1023,2 9
19.10.2018 10:00:00 6,3 6,2 0 0 N 1023,2 10
19.10.2018 09:00:00 1,7 1,6 4 2 W 1022,9 10
19.10.2018 08:00:00 -0,3 -0,3 0 0 N 1022,7 10
19.10.2018 07:00:00 -0,3 -0,3 0 0 N 1022,4 10
19.10.2018 06:00:00 0,5 0,5 0 0 N 1022,3 10
19.10.2018 05:00:00 0,1 0,1 4 2 WNW 1022,0 10
19.10.2018 04:00:00 1,0 1,0 0 0 N 1021,8 10
19.10.2018 03:00:00 1,0 0,9 0 0 N 1021,9 10
19.10.2018 02:00:00 1,4 1,3 0 0 N 1021,9 10
19.10.2018 01:00:00 1,3 1,0 2 1 ZZW 1022,1 10
19.10.2018 00:00:00 2,2 1,9 0 0 N 1021,7 10
18.10.2018 23:00:00 3,0 2,6 0 0 N 1021,4 10
18.10.2018 22:00:00 2,8 1,9 0 0 N 1020,9 10
18.10.2018 21:00:00 4,0 2,4 4 2 WZW 1020,2 10
18.10.2018 20:00:00 6,0 2,6 4 2 - 1019,8 10
18.10.2018 19:00:00 9,3 2,2 8 4 NNW 1019,2 10
18.10.2018 18:00:00 10,4 2,5 13 7 WNW 1018,5 10
18.10.2018 17:00:00 12,2 3,2 18 10 W 1017,6 10
18.10.2018 16:00:00 13,2 3,6 21 11 W 1017,0 10
18.10.2018 15:00:00 13,3 6,4 22 12 W 1016,5 10
18.10.2018 14:00:00 13,2 7,0 26 14 W 1015,9 10
18.10.2018 13:00:00 13,4 9,3 18 10 W 1015,6 10
18.10.2018 12:00:00 12,0 9,6 16 9 W 1015,7 10
18.10.2018 11:00:00 12,2 10,9 11 6 WZW 1015,6 10
18.10.2018 10:00:00 11,9 11,1 11 6 ZW 1015,3 10
18.10.2018 09:00:00 12,0 11,1 11 6 ZW 1015,5 10
18.10.2018 08:00:00 12,7 10,9 11 6 WZW 1015,1 10
18.10.2018 07:00:00 12,8 11,0 9 5 ZW 1014,8 10
18.10.2018 06:00:00 - - - - - - -
18.10.2018 05:00:00 - - - - - - -
18.10.2018 04:00:00 12,3 11,4 9 5 ZZW 1015,2 10
18.10.2018 03:00:00 12,8 11,4 8 4 Z 1015,6 10
18.10.2018 02:00:00 13,0 11,2 8 4 ZW 1016,0 10
18.10.2018 01:00:00 13,4 11,3 11 6 ZZW 1016,2 10
18.10.2018 00:00:00 13,5 11,0 9 5 ZZW 1016,3 10

tt = temperatuur
td = dauwpunt
ff = windsnelheid
dd = windrichting
ppp = luchtdruk
vv = zicht

Weerstations in de omgeving